Regional Weather Roundup
Issued by NWS

Home | Current Version | Previous Version | Graphics & Text | Print | Product List | Glossary On
Versions: 1 2 3 4 5 6 7 8 9 10 11 12 13 14 15 16 17 18 19 20 21 22 23 24 25 26 27 28 29 30 31 32 33 34 35 36 37 38 39 40 41 42 43 44 45 46 47 48 49 50
000
ASUS43 KIND 241809
RWRIN

WEATHER ROUNDUP FOR INDIANA
NATIONAL WEATHER SERVICE INDIANAPOLIS IN
200 PM EDT THU JUL 24 2014

NOTE: "FAIR" INDICATES FEW OR NO CLOUDS BELOW 12,000 FEET WITH NO
SIGNIFICANT WEATHER AND/OR OBSTRUCTIONS TO VISIBILITY.

* - STATION DOES NOT REPORT WEATHER SUCH AS PRECIPITATION OR FOG.

+ - STATION NOT QUALITY CONTROLLED BY THE NATIONAL WEATHER SERVICE.
    USE DATA WITH CAUTION...ESPECIALLY DEWPOINT AND RELATIVE
    HUMIDITY OBSERVATIONS.

INZ001>003-010>013-019-020-241900-
NORTHWEST INDIANA

CITY           SKY/WX    TMP DP  RH WIND       PRES   REMARKS
GARY /AIRPORT/ MOSUNNY   72  59  64 N14       30.17F
KNOX *+        MOSUNNY   73  51  45 NE3       30.13F
LA PORTE +     PTSUNNY   71  52  50 NW7       30.15F
6HR MIN TEMP:  58; 6HR MAX TEMP:  71;

MICHIGAN CITY+ SUNNY     70  52  52 N14       30.15F
MONTICELLO +   PTSUNNY   73  55  54 NE8       30.12F
RENSSELAER +   MOSUNNY   72  55  56 NE3       30.14F
VALPARAISO     MOSUNNY   71  53  52 N9        30.15F
6HR MIN TEMP:  58; 6HR MAX TEMP:  74;


$$

LMZ046-743>745-241900-
SOUTHERN LAKE MICHIGAN

STATION/POSITION TIME  TEMP WIND        PRES
                       AIR  DIR/SP/G
                 (UTC) (F)  (DEG/KT/KT) (MB)
MICHIGAN CITY    1800   67  350/ 12/ 14   N/A

$$

INZ004-005-014>016-021>024-241900-
NORTH CENTRAL INDIANA

CITY           SKY/WX    TMP DP  RH WIND       PRES   REMARKS
ELKHART        PTSUNNY   72  48  43 N7        30.14
GOSHEN         PTSUNNY   73  51  46 NE7       30.13F
6HR MIN TEMP:  61; 6HR MAX TEMP:  74;

LOGANSPORT +   PTSUNNY   70  52  52 N8G16     30.12F
PERU/GRISSOM   CLOUDY    71  54  54 N10       30.11F
6HR MIN TEMP:  59; 6HR MAX TEMP:  73;

ROCHESTER +    PTSUNNY   73  50  43 NE7       30.13F
SOUTH BEND     PTSUNNY   72  52  49 N9        30.14F
6HR MIN TEMP:  59; 6HR MAX TEMP:  75;

WARSAW +       MOSUNNY   72  50  46 N5        30.13S

$$

INZ006>009-017-018-025>027-241900-
NORTHEAST INDIANA

CITY           SKY/WX    TMP DP  RH WIND       PRES   REMARKS
ANGOLA *+      MOSUNNY   73  48  40 VRB5      30.12F
AUBURN +       MOSUNNY   73  43  33 NE9G17    30.12S
FORT WAYNE     MOSUNNY   74  49  41 NE12G20   30.11F
HUNTINGTON +   PTSUNNY   73  52  47 NE6       30.10F
6HR MIN TEMP:  60; 6HR MAX TEMP:  74;


$$

INZ028-029-035-036-043>045-051>053-241900-
WEST CENTRAL INDIANA

CITY           SKY/WX    TMP DP  RH WIND       PRES   REMARKS
GREENCASTLE +  MOSUNNY   72  55  56 N12       30.11S
LAFAYETTE      PTSUNNY   73  55  53 NE7       30.12F
6HR MIN TEMP:  58; 6HR MAX TEMP:  74;

TERRE HAUTE    MOSUNNY   73  58  59 N10       30.11S
6HR MIN TEMP:  58; 6HR MAX TEMP:  76;


$$

INZ030>032-037>040-046>048-054>057-064-065-241900-
CENTRAL INDIANA

CITY           SKY/WX    TMP DP  RH WIND       PRES   REMARKS
CP ATTERBURY + MOSUNNY   73  54  49 NE12G18   30.09F
COLUMBUS       SUNNY     73  54  49 NE16      30.08F
FRANKFORT +    PTSUNNY   70  54  56 N8        30.13
GREENWOOD *+   MOSUNNY   77  57  50 NE10G16   30.10
INDIANAPOLIS   PTSUNNY   74  52  46 N8G17     30.10S
6HR MIN TEMP:  61; 6HR MAX TEMP:  74;

-EAGLE CREEK   PTSUNNY   73  52  47 N12       30.10S
6HR MIN TEMP:  61; 6HR MAX TEMP:  73;

KOKOMO *+      MOSUNNY   75  52  43 NE10      30.11F
MARION +       CLOUDY    71  51  49 N9        30.12S
MT COMFORT *+  MOSUNNY   73  55  53 NE10      30.10S
SHELBYVILLE    MOSUNNY   76  55  48 NE9G18    30.09S
6HR MIN TEMP:  63; 6HR MAX TEMP:  76;

ZIONSVILLE +   PTSUNNY   72  51  47 NE12      30.12S
6HR MIN TEMP:  58; 6HR MAX TEMP:  73;


$$

INZ033-034-041-042-049-050-058-059-241900-
EAST CENTRAL INDIANA

CITY           SKY/WX    TMP DP  RH WIND       PRES   REMARKS
MUNCIE         MOSUNNY   74  51  44 NE20      30.11S
6HR MIN TEMP:  62; 6HR MAX TEMP:  74;


$$

INZ060-061-067>069-081>083-085>088-241900-
SOUTHWEST INDIANA

CITY           SKY/WX    TMP DP  RH WIND       PRES   REMARKS
EVANSVILLE     MOSUNNY   80  55  42 N8        30.06F
6HR MIN TEMP:  60; 6HR MAX TEMP:  80;

HUNTINGBURG *+ MOSUNNY   77  57  50 NE12      30.06F
6HR MIN TEMP:  63; 6HR MAX TEMP:  77;

WASHINGTON +   PTSUNNY   74  60  59 N10       30.08R
6HR MIN TEMP:  59; 6HR MAX TEMP:  76;


$$

INZ062-063-066-070>080-084-089>092-241900-
SOUTH CENTRAL AND SOUTHEAST INDIANA

CITY           SKY/WX    TMP DP  RH WIND       PRES   REMARKS
BLOOMINGTON    MOSUNNY   75  55  49 N13G18    30.09F
6HR MIN TEMP:  61; 6HR MAX TEMP:  76;


$$



USA.gov is the U.S. government's official web portal to all federal, state and local government web resources and services.